GW6799 Weather Reports


time (UTC)temp
C
wind
direction
speed
KPH
gust
KPH
rain 1hr
cm
rain 24hr
cm
rain mn
cm
humidity
%
barometer
mb
20260509091008 20 161 3.2 9.7 0.00 0.38 0.00 90 1009.5
20260509090504 20 69 4.8 8.0 0.00 0.38 0.00 90 1009.5
20260509090028 20 42 3.2 8.0 0.00 0.38 0.00 90 1009.9
20260509085505 20 30 3.2 9.7 0.00 0.38 0.00 90 1010.1
20260509085004 20 38 3.2 9.7 0.00 0.38 0.00 90 1009.9
20260509084529 20 50 4.8 14.5 0.00 0.38 0.00 90 1009.9
20260509084006 20 59 4.8 16.1 0.00 0.38 0.00 90 1009.8
20260509083503 20 58 6.4 16.1 0.00 0.38 0.00 90 1009.7
20260509083025 20 86 8.0 16.1 0.00 0.38 0.00 90 1009.4
20260509082506 20 84 8.0 16.1 0.00 0.38 0.00 90 1009.4
20260509082007 20 90 4.8 16.1 0.00 0.38 0.00 90 1009.5
20260509081536 20 61 6.4 16.1 0.00 0.38 0.00 89 1009.4
20260509081010 20 79 6.4 12.9 0.00 0.38 0.00 89 1009.7
20260509080504 20 94 6.4 12.9 0.00 0.38 0.00 89 1009.9
20260509080027 20 82 6.4 12.9 0.00 0.38 0.00 89 1010.1
20260509075510 20 65 6.4 12.9 0.00 0.38 0.00 89 1010.3
20260509075002 20 94 4.8 9.7 0.00 0.38 0.00 89 1010.4
20260509074524 20 77 4.8 8.0 0.00 0.38 0.00 89 1010.6
20260509074008 20 71 3.2 8.0 0.00 0.38 0.00 89 1010.6
20260509073503 20 106 1.6 9.7 0.00 0.38 0.00 89 1010.4
20260509073026 20 78 3.2 9.7 0.00 0.38 0.00 88 1010.7
20260509072511 20 49 3.2 9.7 0.00 0.38 0.00 88 1010.9
20260509072008 20 77 4.8 9.7 0.00 0.38 0.00 88 1010.9
20260509071524 20 84 3.2 8.0 0.00 0.38 0.00 88 1011.1
20260509071008 20 86 4.8 6.4 0.00 0.38 0.00 88 1011.1
20260509070504 20 71 3.2 6.4 0.00 0.38 0.00 88 1011.1
20260509070026 20 65 3.2 6.4 0.00 0.38 0.00 88 1011.3
20260509065507 20 68 1.6 6.4 0.00 0.38 0.00 88 1011.4
20260509065004 20 72 3.2 6.4 0.00 0.38 0.00 89 1011.6
20260509064528 19 50 1.6 4.8 0.00 0.38 0.00 89 1011.8
20260509064006 19 62 0.0 6.4 0.00 0.38 0.00 89 1011.7
20260509063508 19 35 1.6 8.0 0.00 0.38 0.00 89 1011.8
20260509063025 19 346 3.2 16.1 0.00 0.38 0.00 89 1011.8
20260509062508 19 13 8.0 16.1 0.00 0.38 0.00 89 1011.8
20260509062011 19 344 8.0 16.1 0.00 0.38 0.00 89 1011.8
20260509061528 19 317 4.8 9.7 0.00 0.38 0.00 89 1011.7
20260509061006 19 334 4.8 6.4 0.00 0.38 0.00 88 1011.4
20260509060509 19 155 0.0 6.4 0.00 0.38 0.00 88 1010.8
20260509060026 19 156 3.2 6.4 0.00 0.38 0.00 87 1010.4
20260509055508 20 175 0.0 9.7 0.00 0.38 0.00 87 1010.3
20260509055009 20 148 4.8 9.7 0.00 0.38 0.00 87 1010.3
20260509054539 20 146 6.4 9.7 0.00 0.38 0.00 87 1010.3
20260509054007 20 145 3.2 8.0 0.00 0.38 0.00 87 1010.5
20260509053509 20 173 4.8 9.7 0.00 0.38 0.00 87 1010.7
20260509053101 19 167 3.2 9.7 0.00 0.38 0.00 87 1010.8
20260509052505 19 161 4.8 8.0 0.00 0.38 0.00 87 1010.8
20260509052011 19 198 4.8 8.0 0.00 0.38 0.00 87 1011.2
20260509051527 19 204 4.8 8.0 0.00 0.38 0.00 87 1011.3
20260509051007 19 198 4.8 6.4 0.00 0.38 0.00 86 1011.2
20260509050507 20 221 3.2 6.4 0.00 0.38 0.00 86 1011.4
20260509050038 20 217 3.2 6.4 0.00 0.38 0.00 86 1011.3
20260509045505 20 248 1.6 3.2 0.00 0.38 0.38 85 1011.5
20260509045003 20 288 0.0 4.8 0.00 0.38 0.38 85 1011.4
20260509044514 20 288 1.6 9.7 0.00 0.38 0.38 85 1011.5
20260509044007 20 238 3.2 9.7 0.00 0.38 0.38 84 1011.2
20260509043504 20 221 6.4 9.7 0.00 0.38 0.38 84 1010.9
20260509043005 20 222 4.8 9.7 0.00 0.38 0.38 83 1011.1
20260509042510 20 217 3.2 3.2 0.00 0.38 0.38 83 1011.2
20260509042005 20 217 0.0 8.0 0.00 0.38 0.38 82 1011.2
20260509041507 20 182 1.6 9.7 0.00 0.38 0.38 82 1011.0
20260509041006 20 194 3.2 9.7 0.00 0.38 0.38 82 1010.6
20260509040508 20 167 3.2 8.0 0.00 0.38 0.38 82 1010.6
20260509040006 20 198 3.2 8.0 0.00 0.38 0.38 82 1010.6
20260509035506 20 189 3.2 9.7 0.00 0.38 0.38 82 1010.8
20260509035008 21 178 4.8 9.7 0.00 0.38 0.38 81 1010.6
20260509034507 21 168 3.2 12.9 0.00 0.38 0.38 81 1010.7
20260509034011 21 160 4.8 14.5 0.00 0.38 0.38 81 1010.6
20260509033503 21 184 4.8 14.5 0.00 0.38 0.38 81 1010.6
20260509033008 21 186 3.2 8.0 0.00 0.38 0.38 80 1010.7
20260509032507 21 175 1.6 11.3 0.00 0.38 0.38 80 1010.7
20260509032004 21 189 3.2 14.5 0.00 0.38 0.38 80 1010.3
20260509031506 21 166 8.0 14.5 0.00 0.38 0.38 80 1010.0
20260509031007 21 189 4.8 9.7 0.00 0.38 0.38 80 1010.0
20260509030508 21 192 3.2 8.0 0.00 0.38 0.38 80 1010.4
20260509030021 21 156 3.2 4.8 0.00 0.38 0.38 80 1010.5
20260509025507 21 121 0.0 0.0 0.00 0.38 0.38 80 1010.9
20260509025007 21 93 0.0 0.0 0.00 0.38 0.38 80 1011.1
20260509024508 21 56 0.0 0.0 0.00 0.38 0.38 80 1011.4
20260509024006 21 56 0.0 0.0 0.00 0.38 0.38 79 1011.3
20260509023505 21 136 0.0 0.0 0.00 0.38 0.38 79 1011.0
20260509023016 21 142 0.0 0.0 0.00 0.38 0.38 79 1010.8
20260509022507 21 77 0.0 0.0 0.00 0.38 0.38 79 1010.8
20260509022010 21 77 0.0 0.0 0.00 0.38 0.38 79 1010.6
20260509021508 21 77 0.0 0.0 0.00 0.38 0.38 78 1010.5
20260509021007 21 77 0.0 0.0 0.00 0.38 0.38 78 1010.4
20260509020503 21 77 0.0 0.0 0.00 0.38 0.38 77 1010.2
20260509020007 21 77 0.0 1.6 0.00 0.38 0.38 77 1010.1
20260509015507 21 77 0.0 4.8 0.00 0.38 0.38 76 1010.0
20260509015004 21 115 0.0 9.7 0.00 0.38 0.38 76 1010.0
20260509014508 22 71 3.2 9.7 0.00 0.38 0.38 75 1009.7
20260509014006 22 164 4.8 8.0 0.00 0.38 0.38 75 1009.7
20260509013503 22 153 4.8 11.3 0.00 0.38 0.38 74 1009.7
20260509013007 22 148 6.4 11.3 0.00 0.38 0.38 74 1009.6
20260509012509 22 168 3.2 11.3 0.00 0.38 0.38 74 1009.6
20260509012007 22 128 4.8 11.3 0.00 0.38 0.38 74 1009.5
20260509011508 22 165 4.8 11.3 0.00 0.38 0.38 74 1009.5
20260509011010 22 169 6.4 12.9 0.00 0.38 0.38 74 1009.4
20260509010507 22 197 4.8 12.9 0.00 0.38 0.38 73 1009.4
20260509010013 22 161 6.4 14.5 0.00 0.38 0.38 73 1009.3
20260509005508 22 163 8.0 14.5 0.00 0.38 0.38 73 1009.4
20260509005006 22 174 6.4 14.5 0.00 0.38 0.38 73 1009.4
20260509004509 22 175 8.0 14.5 0.00 0.38 0.38 73 1009.5
20260509004007 22 194 8.0 14.5 0.00 0.38 0.38 72 1009.4
20260509003504 23 175 8.0 14.5 0.00 0.38 0.38 72 1009.4
20260509003042 23 151 6.4 17.7 0.00 0.38 0.38 72 1009.2
20260509002508 23 162 8.0 17.7 0.00 0.38 0.38 72 1009.1
20260509002004 23 198 8.0 20.9 0.00 0.38 0.38 72 1009.0
20260509001508 23 181 9.7 20.9 0.00 0.38 0.38 71 1009.0
20260509001007 23 165 8.0 24.1 0.00 0.38 0.38 71 1009.0
20260509000507 23 171 11.3 24.1 0.00 0.38 0.38 70 1008.9
20260509000028 23 156 9.7 19.3 0.00 0.38 0.38 70 1008.9
20260508235510 23 182 11.3 19.3 0.00 0.38 0.38 70 1008.9
20260508235008 24 205 8.0 20.9 0.00 0.38 0.38 70 1009.0
20260508234532 23 200 9.7 20.9 0.00 0.38 0.38 69 1009.0
20260508234009 24 159 11.3 19.3 0.00 0.38 0.38 69 1009.0
20260508233507 24 211 12.9 20.9 0.00 0.38 0.38 69 1009.0
20260508233028 24 183 8.0 20.9 0.00 0.38 0.38 68 1009.1
20260508232507 24 172 9.7 20.9 0.00 0.38 0.38 67 1009.0
20260508232007 25 178 9.7 17.7 0.00 0.38 0.38 67 1009.1
20260508231526 24 198 9.7 16.1 0.00 0.38 0.38 67 1009.1
20260508231009 24 178 11.3 16.1 0.00 0.38 0.38 66 1009.2
20260508230508 24 167 9.7 16.1 0.00 0.38 0.38 65 1009.2
20260508230032 25 179 8.0 16.1 0.00 0.38 0.38 65 1009.2
20260508225510 25 138 8.0 16.1 0.00 0.38 0.38 65 1009.2
20260508225004 25 155 6.4 16.1 0.00 0.38 0.38 64 1009.3
20260508224526 25 149 6.4 16.1 0.00 0.38 0.38 64 1009.2
20260508224006 25 157 9.7 17.7 0.00 0.38 0.38 63 1009.1
20260508223509 25 180 8.0 17.7 0.00 0.38 0.38 63 1009.2
20260508223026 25 157 9.7 16.1 0.00 0.38 0.38 64 1009.1
20260508222505 25 148 8.0 16.1 0.00 0.38 0.38 64 1009.2
20260508222005 25 194 8.0 16.1 0.00 0.38 0.38 63 1009.2
20260508221527 25 190 8.0 14.5 0.00 0.38 0.38 64 1009.2
20260508221008 25 202 8.0 17.7 0.00 0.38 0.38 65 1009.2
20260508220506 25 213 9.7 20.9 0.00 0.38 0.38 65 1009.2
20260508220029 25 159 9.7 20.9 0.00 0.38 0.38 64 1009.2
20260508215510 25 71 9.7 17.7 0.00 0.38 0.38 64 1009.1
20260508215007 25 165 11.3 17.7 0.00 0.38 0.38 64 1009.2
20260508214526 25 170 11.3 17.7 0.00 0.38 0.38 64 1009.2
20260508214009 25 194 6.4 17.7 0.00 0.38 0.38 65 1009.1
20260508213505 25 178 9.7 20.9 0.00 0.38 0.38 65 1009.3
20260508213032 25 183 8.0 22.5 0.00 0.38 0.38 66 1009.5
20260508212512 25 167 9.7 22.5 0.00 0.38 0.38 65 1009.6
20260508212007 25 200 8.0 19.3 0.00 0.38 0.38 63 1009.7
20260508211530 25 209 8.0 24.1 0.00 0.38 0.38 64 1009.9
20260508211006 25 158 9.7 24.1 0.00 0.38 0.38 63 1010.1
20260508210506 25 198 11.3 22.5 0.00 0.38 0.38 64 1010.2
20260508210031 25 158 14.5 19.3 0.00 0.38 0.38 62 1010.2
20260508205507 25 159 11.3 24.1 0.00 0.38 0.38 61 1010.3
20260508205005 25 196 16.1 24.1 0.00 0.38 0.38 61 1010.4
20260508204530 25 140 9.7 22.5 0.00 0.38 0.38 62 1010.6
20260508204009 25 165 11.3 25.7 0.00 0.38 0.38 62 1010.7
20260508203506 25 167 14.5 25.7 0.00 0.38 0.38 60 1010.7
20260508203031 25 156 12.9 20.9 0.00 0.38 0.38 62 1010.6
20260508202506 24 209 11.3 20.9 0.00 0.38 0.38 65 1010.8
20260508202005 24 195 12.9 20.9 0.00 0.38 0.38 62 1011.1
20260508201528 24 182 9.7 20.9 0.00 0.38 0.38 63 1011.3
20260508201018 24 169 8.0 20.9 0.00 0.38 0.38 63 1011.4
20260508200506 24 165 12.9 19.3 0.00 0.38 0.38 63 1011.4
20260508200033 23 157 11.3 17.7 0.00 0.38 0.38 62 1011.3
20260508195507 23 164 9.7 17.7 0.00 0.38 0.38 64 1011.3
20260508195002 23 166 8.0 14.5 0.00 0.38 0.38 63 1011.4
20260508194514 23 141 6.4 14.5 0.00 0.38 0.38 63 1011.6
20260508194003 23 132 8.0 14.5 0.00 0.38 0.38 63 1011.6
20260508193503 23 150 8.0 16.1 0.00 0.38 0.38 62 1011.6
20260508193012 23 157 9.7 16.1 0.00 0.38 0.38 62 1011.6
20260508192504 23 153 8.0 16.1 0.00 0.38 0.38 62 1011.5
20260508192003 23 207 11.3 16.1 0.00 0.38 0.38 62 1011.5
20260508191511 23 117 4.8 16.1 0.00 0.38 0.38 65 1011.5
20260508191002 23 152 8.0 16.1 0.00 0.38 0.38 64 1011.6
20260508190502 23 129 9.7 16.1 0.00 0.38 0.38 63 1011.6
20260508190010 23 145 8.0 16.1 0.00 0.38 0.38 65 1011.6
20260508185508 23 132 8.0 16.1 0.00 0.38 0.38 64 1011.7
20260508185003 23 157 4.8 16.1 0.00 0.38 0.38 66 1011.7
20260508184513 23 182 6.4 16.1 0.00 0.38 0.38 64 1011.9
20260508184002 23 186 4.8 16.1 0.00 0.38 0.38 66 1011.9
20260508183502 23 158 8.0 14.5 0.00 0.38 0.38 66 1012.0
20260508183014 23 187 6.4 14.5 0.00 0.38 0.38 67 1011.9
20260508182504 22 175 8.0 14.5 0.00 0.38 0.38 64 1012.1
20260508182003 22 129 8.0 14.5 0.00 0.38 0.38 67 1012.3
20260508181513 22 168 6.4 11.3 0.00 0.38 0.38 68 1012.4
20260508181003 22 129 4.8 12.9 0.00 0.38 0.38 69 1012.5
20260508180503 22 153 8.0 12.9 0.00 0.38 0.38 69 1012.6
20260508180015 22 172 6.4 12.9 0.00 0.38 0.38 68 1012.6
20260508175502 22 122 6.4 12.9 0.00 0.38 0.38 69 1012.8
20260508175007 22 119 1.6 11.3 0.00 0.38 0.38 69 1012.9
20260508174529 21 209 6.4 11.3 0.00 0.38 0.38 68 1013.1
20260508174003 21 155 4.8 16.1 0.00 0.38 0.38 71 1013.3
20260508173509 21 176 8.0 17.7 0.00 0.38 0.38 68 1013.4
20260508173014 21 157 4.8 17.7 0.00 0.38 0.38 69 1013.5
20260508172506 21 184 6.4 16.1 0.00 0.38 0.38 71 1013.6
20260508172003 21 169 8.0 16.1 0.00 0.38 0.38 72 1013.7
20260508171514 20 173 6.4 14.5 0.00 0.38 0.38 72 1013.8
20260508171002 20 173 6.4 14.5 0.00 0.38 0.38 75 1013.8
20260508170502 20 153 8.0 14.5 0.00 0.38 0.38 75 1013.9
20260508170014 20 140 4.8 12.9 0.00 0.38 0.38 76 1014.1
20260508165503 20 165 6.4 12.9 0.00 0.38 0.38 76 1014.2
20260508165002 20 160 4.8 12.9 0.00 0.38 0.38 78 1014.3
20260508164516 20 140 3.2 12.9 0.00 0.38 0.38 77 1014.5
20260508164004 20 169 4.8 11.3 0.00 0.38 0.38 80 1014.5
20260508163506 19 115 3.2 12.9 0.00 0.38 0.38 79 1014.5
20260508163031 18 173 6.4 14.5 0.00 0.38 0.38 80 1014.6
20260508162504 18 143 6.4 14.5 0.00 0.38 0.38 79 1014.6
20260508162008 18 167 6.4 12.9 0.00 0.38 0.38 80 1014.7
20260508161513 18 167 4.8 12.9 0.00 0.38 0.38 81 1014.5
20260508161003 18 192 6.4 14.5 0.00 0.38 0.38 79 1014.6
20260508160506 18 135 4.8 14.5 0.00 0.38 0.38 79 1014.9
20260508160016 18 175 8.0 14.5 0.00 0.38 0.38 79 1014.9
20260508155503 18 157 4.8 14.5 0.00 0.38 0.38 81 1014.9
20260508155007 18 216 4.8 12.9 0.00 0.38 0.38 83 1015.0
20260508154518 17 189 6.4 11.3 0.00 0.38 0.38 82 1014.8
20260508154006 17 146 6.4 12.9 0.00 0.38 0.38 82 1014.6
20260508153509 17 212 6.4 11.3 0.00 0.38 0.38 84 1014.9
20260508153025 17 178 6.4 8.0 0.00 0.38 0.38 83 1014.9
20260508152503 17 178 3.2 8.0 0.00 0.38 0.38 83 1015.0
20260508152009 17 159 3.2 12.9 0.00 0.38 0.38 83 1014.9
20260508151522 17 184 4.8 12.9 0.00 0.38 0.38 84 1015.0
20260508151003 17 190 3.2 11.3 0.00 0.38 0.38 86 1015.1
20260508150512 17 167 4.8 16.1 0.00 0.38 0.38 86 1015.0
20260508150016 17 173 6.4 16.1 0.00 0.38 0.38 86 1015.3
20260508145504 17 163 8.0 16.1 0.00 0.38 0.38 87 1015.2
20260508145007 16 181 8.0 12.9 0.00 0.38 0.38 88 1015.0
20260508144515 16 164 3.2 12.9 0.03 0.38 0.38 90 1015.0
20260508144004 16 157 8.0 12.9 0.03 0.38 0.38 89 1015.1
20260508143508 16 175 4.8 11.3 0.03 0.38 0.38 89 1014.9
20260508143014 16 150 6.4 11.3 0.03 0.38 0.38 90 1015.1
20260508142504 16 190 6.4 9.7 0.05 0.38 0.38 91 1015.1
20260508142006 16 165 1.6 6.4 0.05 0.38 0.38 91 1015.1
20260508141515 16 117 0.0 4.8 0.05 0.38 0.38 91 1015.2
20260508141003 16 148 3.2 4.8 0.05 0.38 0.38 91 1015.4
20260508140514 16 67 0.0 4.8 0.05 0.38 0.38 92 1015.5
20260508140018 16 60 3.2 4.8 0.05 0.38 0.38 92 1015.4
20260508135504 15 288 0.0 3.2 0.05 0.38 0.38 91 1015.5
20260508135013 15 288 0.0 3.2 0.05 0.38 0.38 91 1015.7
20260508134523 15 288 0.0 3.2 0.03 0.36 0.36 91 1015.6
20260508134003 15 288 1.6 4.8 0.03 0.36 0.36 91 1015.6
20260508133513 15 191 0.0 6.4 0.03 0.36 0.36 91 1015.5
20260508133017 15 133 3.2 6.4 0.05 0.36 0.36 91 1015.2
20260508132502 15 140 3.2 6.4 0.08 0.33 0.33 90 1015.0
20260508132007 15 161 1.6 4.8 0.08 0.33 0.33 90 1015.2
20260508131519 15 241 1.6 4.8 0.10 0.33 0.33 90 1015.8
20260508131004 15 194 0.0 6.4 0.10 0.33 0.33 90 1015.5
20260508130508 15 149 1.6 8.0 0.10 0.33 0.33 90 1015.2
20260508130018 15 181 4.8 8.0 0.10 0.33 0.33 90 1015.2
20260508125506 15 194 3.2 8.0 0.10 0.33 0.33 90 1015.4
20260508125011 15 192 4.8 9.7 0.10 0.33 0.33 89 1015.4
20260508124518 15 130 4.8 9.7 0.10 0.33 0.33 89 1015.1
20260508124004 15 153 3.2 4.8 0.10 0.33 0.33 89 1015.4
20260508123508 15 173 3.2 8.0 0.10 0.33 0.33 88 1015.7
20260508123016 15 173 1.6 8.0 0.08 0.30 0.30 88 1015.6
20260508122504 15 167 4.8 8.0 0.03 0.25 0.25 88 1016.2
20260508122007 15 182 4.8 6.4 0.03 0.25 0.25 89 1016.1
20260508121520 15 165 4.8 8.0 0.00 0.23 0.23 89 1015.8
20260508121003 15 201 3.2 8.0 0.00 0.23 0.23 89 1015.7
20260508120508 15 202 3.2 6.4 0.00 0.23 0.23 90 1015.8
20260508120015 15 113 1.6 11.3 0.00 0.23 0.23 90 1015.2
20260508115505 15 147 3.2 11.3 0.00 0.23 0.23 90 1016.0
20260508115008 15 192 0.0 3.2 0.00 0.23 0.23 91 1015.7
20260508114519 15 215 0.0 3.2 0.05 0.23 0.23 91 1015.6
20260508114003 15 153 0.0 3.2 0.05 0.23 0.23 90 1015.3
20260508113508 15 153 0.0 6.4 0.05 0.23 0.23 90 1015.1
20260508113017 15 199 3.2 6.4 0.08 0.23 0.23 90 1014.7
20260508112504 15 155 1.6 11.3 0.08 0.23 0.23 90 1014.8
20260508112009 15 101 1.6 12.9 0.18 0.23 0.23 90 1014.6
20260508111520 15 202 4.8 16.1 0.20 0.23 0.23 91 1015.0
20260508111011 15 169 6.4 16.1 0.23 0.23 0.23 92 1015.3
20260508110507 15 159 1.6 6.4 0.23 0.23 0.23 92 1015.0
20260508110024 14 187 1.6 3.2 0.23 0.23 0.23 92 1015.3
20260508105510 14 197 0.0 4.8 0.23 0.23 0.23 91 1015.1
20260508105003 14 77 3.2 4.8 0.23 0.23 0.23 91 1014.6
20260508104502 14 254 0.0 6.4 0.18 0.18 0.18 91 1015.1
20260508104005 14 234 3.2 6.4 0.18 0.18 0.18 91 1015.7
20260508103503 14 250 1.6 3.2 0.18 0.18 0.18 91 1015.3
20260508103017 14 170 1.6 3.2 0.15 0.15 0.15 91 1014.7
20260508102503 13 261 0.0 4.8 0.15 0.15 0.15 91 1014.5
20260508102003 14 261 0.0 4.8 0.05 0.05 0.05 90 1014.5
20260508101530 14 286 1.6 3.2 0.03 0.03 0.03 90 1014.8
20260508101004 13 310 0.0 4.8 0.00 0.00 0.00 90 1014.1
20260508100503 13 199 0.0 6.4 0.00 0.00 0.00 90 1014.5
20260508100018 13 163 4.8 6.4 0.00 0.00 0.00 89 1014.2
20260508095503 13 147 1.6 3.2 0.00 0.00 0.00 89 1014.1
20260508095003 13 311 0.0 0.0 0.00 0.00 0.00 88 1014.4
20260508094517 13 311 0.0 3.2 0.00 0.00 0.00 87 1014.6
20260508094006 14 311 1.6 3.2 0.00 0.00 0.00 86 1014.7
20260508093503 14 163 0.0 0.0 0.00 0.00 0.00 86 1014.6
20260508093037 14 163 0.0 0.0 0.00 0.00 0.00 86 1014.5
20260508092503 15 163 0.0 0.0 0.00 0.00 0.00 86 1014.5
20260508092004 15 163 0.0 0.0 0.00 0.00 0.00 85 1014.6
20260508091523 15 163 0.0 0.0 0.00 0.00 0.00 85 1014.6